Location: Marcé
(47.5801°N, 0.3280°W)
Time: 22:56:28
(UTC+01:00)

S-56A Canister/Altair - Pass Details

Date: 01 December 2021
Orbit: 633 x 2499 km, 38.9° (Epoch: 16 January)

Event Time Altitude Azimuth Distance (km) Brightness Sun altitude
Rises 05:55:09 0° 265° (W) 3,532 - -25.1°
Reaches altitude 10° 05:58:27 10° 251° (WSW) 2,356 - -24.5°
Maximum altitude 06:02:28 22° 201° (SSW) 1,475 - -23.9°
Exits shadow 06:02:39 22° 198° (SSW) 1,470 8.8 -23.8°
Drops below altitude 10° 06:06:00 10° 149° (SSE) 2,027 10.2 -23.3°
Sets 06:08:36 0° 133° (SE) 2,911 11.4 -22.8°
